Date,TemperatureHighF,TemperatureAvgF,TemperatureLowF,DewpointHighF,DewpointAvgF,DewpointLowF,HumidityHigh,HumidityAvg,HumidityLow,PressureMaxIn,PressureMinIn,WindSpeedMaxMPH,WindSpeedAvgMPH,GustSpeedMaxMPH,PrecipitationSumIn
2014-1-1,54,38,29,30,26,23,86,66,37,30.16,29.86,8,2,0,0.00
2014-1-2,38,29,13,38,26,10,99,90,66,30.10,29.63,10,3,0,0.30
2014-1-3,27,15,6,13,8,4,92,75,53,30.33,30.11,6,2,0,0.00
2014-1-4,48,30,16,25,17,10,79,61,36,30.12,29.92,12,4,0,0.00
2014-1-5,55,43,29,48,39,26,99,88,66,29.92,29.34,15,5,0,0.42
2014-1-6,28,6,-4,28,2,-10,97,81,67,30.28,29.62,10,6,0,0.00
2014-1-7,16,4,-5,5,-2,-11,83,74,59,30.37,30.22,8,4,0,0.00
2014-1-8,33,22,7,23,14,2,88,73,57,30.33,30.25,9,3,0,0.00
2014-1-9,42,32,27,33,25,21,91,75,50,30.35,30.14,6,3,0,0.00
2014-1-10,53,44,36,52,43,34,99,96,89,30.14,29.60,14,3,0,0.04
2014-1-11,56,48,33,54,44,32,99,88,63,29.72,29.38,11,5,0,1.04
2014-1-12,54,41,31,40,34,31,99,79,48,29.94,29.72,8,4,0,0.00
2014-1-13,50,46,42,48,41,34,99,82,59,29.81,29.60,11,6,0,0.41
2014-1-14,55,44,35,46,38,31,99,80,42,29.80,29.62,9,3,0,0.06
2014-1-15,36,29,20,35,22,17,95,75,57,29.95,29.80,7,3,0,0.00
2014-1-16,35,27,18,32,22,17,99,81,57,29.91,29.62,10,4,0,0.00
2014-1-17,33,26,16,33,23,9,99,88,68,29.94,29.61,9,4,0,0.00
2014-1-18,33,25,14,23,16,8,88,70,58,29.93,29.62,13,4,0,0.00
2014-1-19,42,35,31,32,27,23,89,73,55,29.86,29.63,11,5,0,0.00
2014-1-20,59,43,34,35,30,26,82,61,40,29.74,29.65,10,4,0,0.00
2014-1-21,34,22,5,31,18,0,99,85,72,30.01,29.57,7,3,0,0.00
2014-1-22,19,10,-2,12,4,-4,93,75,56,30.02,29.87,6,2,0,0.00
2014-1-23,19,11,2,17,2,-4,92,68,48,30.47,29.94,10,4,0,0.00
2014-1-24,23,11,-3,8,2,-5,92,69,51,30.50,29.80,11,5,0,0.00
2014-1-25,37,26,16,31,16,3,98,68,40,29.79,29.43,14,7,0,0.06
2014-1-26,54,32,8,34,20,2,82,61,43,29.80,29.45,12,4,0,0.00
2014-1-27,46,23,8,35,9,-2,78,55,39,30.23,29.51,11,4,0,0.00
2014-1-28,15,8,2,0,-4,-8,84,61,39,30.27,30.16,8,2,0,0.00
2014-1-29,30,13,-1,7,2,-5,90,64,37,30.23,30.16,6,1,0,0.00
2014-1-30,39,24,7,11,6,1,80,51,28,30.16,29.82,12,4,0,0.00
2014-1-31,42,36,27,23,17,11,56,47,40,30.02,29.90,7,2,0,0.00
2014-2-1,64,51,39,44,30,23,73,47,22,29.92,29.75,14,4,0,0.00
2014-2-2,52,39,30,47,38,30,99,96,73,30.00,29.77,10,3,0,1.03
2014-2-3,36,28,21,31,26,21,99,93,77,30.17,29.88,5,2,0,0.05
2014-2-4,32,28,21,32,27,21,99,99,99,30.16,29.68,7,3,0,0.00
2014-2-5,33,29,22,33,29,22,99,98,92,30.21,29.55,0,0,0,0.02
2014-2-6,34,25,19,27,22,17,99,90,67,30.29,30.20,0,0,0,0.01
2014-2-7,34,20,13,23,15,10,95,83,59,30.30,30.17,0,0,0,0.00
2014-2-8,32,24,17,29,22,13,99,89,82,30.18,29.99,4,1,0,0.00
2014-2-9,36,30,26,34,29,26,99,94,79,30.07,29.90,4,1,0,0.00
2014-2-10,29,20,12,25,16,10,99,83,57,30.20,30.05,5,2,0,0.00
2014-2-11,24,14,6,14,9,3,92,79,64,30.28,30.18,9,4,0,0.00
2014-2-12,32,21,10,21,14,7,88,76,60,30.19,29.80,6,3,0,0.00
2014-2-13,50,33,22,25,21,17,85,62,31,29.80,29.54,7,3,0,0.38
2014-2-14,51,38,30,38,31,22,99,78,55,29.63,29.45,9,3,0,0.52
2014-2-15,34,25,19,29,21,18,99,84,67,29.97,29.55,6,3,0,0.04
2014-2-16,40,31,24,32,27,21,98,85,70,30.11,29.83,7,3,0,0.02
2014-2-17,49,34,22,46,30,19,99,86,70,30.12,29.56,12,5,0,0.30
2014-2-18,62,46,31,38,33,29,97,64,35,30.02,29.71,10,4,0,0.00
2014-2-19,65,53,45,52,42,33,99,68,37,29.92,29.63,10,4,0,0.10
2014-2-20,71,59,44,60,49,33,98,71,58,29.87,29.45,18,7,0,0.62
2014-2-21,58,45,35,57,32,18,99,65,28,29.89,29.44,12,5,0,0.47
2014-2-22,68,49,31,32,27,22,75,45,25,29.97,29.79,8,3,0,0.00
2014-2-23,56,40,28,39,33,21,99,76,46,30.03,29.81,6,3,0,0.02
2014-2-24,48,32,22,22,18,14,83,59,31,30.16,30.02,9,2,0,0.05
2014-2-25,49,33,26,24,20,16,73,59,38,30.04,29.91,6,3,0,0.00
2014-2-26,35,25,18,24,13,5,94,63,36,30.01,29.77,7,3,0,0.00
2014-2-27,41,26,16,16,9,0,72,50,24,29.97,29.71,10,4,0,0.00
2014-2-28,40,35,33,15,14,12,46,42,32,29.94,29.90,5,2,0,0.00
2014-3-1,60,48,32,42,33,14,87,59,43,30.05,29.94,7,2,0,0.00
2014-3-2,51,36,22,42,34,21,99,91,69,30.00,29.90,9,3,0,1.17
2014-3-3,23,17,11,20,13,7,98,85,65,30.22,29.97,10,5,0,0.00
2014-3-4,43,22,9,26,14,6,89,73,50,30.19,30.01,8,2,0,0.25
2014-3-5,40,29,18,29,22,18,99,77,49,30.13,30.01,9,3,0,0.15
2014-3-6,45,34,24,32,25,19,82,70,58,30.10,29.90,8,4,0,0.00
2014-3-7,68,45,26,44,34,25,94,68,41,29.90,29.79,5,1,0,0.00
2014-3-8,62,46,32,44,37,30,97,73,45,29.98,29.85,6,2,0,0.00
2014-3-9,57,43,34,37,32,28,92,69,40,30.12,29.92,8,2,0,0.00
2014-3-10,71,52,37,47,38,29,88,62,39,29.91,29.64,9,4,0,0.00
2014-3-11,80,60,46,50,44,39,85,59,27,29.67,29.43,9,3,0,0.00
2014-3-12,62,46,30,59,42,24,99,85,57,29.84,29.13,14,5,0,0.47
2014-3-13,50,33,18,24,17,12,80,55,29,30.08,29.83,6,3,0,0.00
2014-3-14,65,49,31,37,30,19,63,49,35,29.99,29.74,14,6,0,0.00
2014-3-15,73,56,38,41,36,31,86,49,26,29.96,29.80,9,3,0,0.00
2014-3-16,49,36,26,32,29,25,99,80,51,29.89,29.73,12,6,0,0.13
2014-3-17,43,33,25,35,28,22,95,85,75,29.76,29.64,9,4,0,0.15
2014-3-18,54,44,37,46,39,34,95,83,71,29.84,29.70,7,3,0,0.00
2014-3-19,60,50,44,49,44,37,97,81,63,29.89,29.68,11,6,0,0.00
2014-3-20,63,47,32,37,32,29,89,60,34,30.01,29.89,8,3,0,0.00
2014-3-21,72,55,36,38,32,28,72,45,25,29.93,29.74,11,4,0,0.00
2014-3-22,69,55,41,41,35,31,72,49,31,30.02,29.73,7,3,0,0.00
2014-3-23,50,40,36,32,31,28,79,69,44,30.10,30.00,9,4,0,0.00
2014-3-24,41,38,34,27,23,18,73,56,38,29.97,29.94,5,3,0,0.00
2014-3-25,43,32,27,32,27,18,98,81,54,30.05,29.84,10,3,0,0.20
2014-3-26,49,37,18,24,20,14,86,51,35,30.23,30.06,7,2,0,0.01
2014-3-27,62,47,32,33,24,18,60,42,26,30.10,29.70,14,6,0,0.00
2014-3-28,73,60,50,60,52,37,98,79,43,29.92,29.72,19,6,0,0.21
2014-3-29,52,49,36,46,44,36,98,82,77,29.96,29.73,7,4,0,0.08
2014-3-30,54,35,32,36,33,31,98,92,42,30.07,29.96,7,4,0,0.00
2014-3-31,70,68,64,36,36,35,36,31,28,30.00,29.93,6,4,0,0.00
2014-4-1,82,81,80,52,51,50,36,36,35,29.81,29.81,7,6,0,0.00
2014-4-2,74,61,48,56,49,42,79,66,53,29.95,29.83,6,6,0,0.00
2014-4-4,60,60,60,59,59,59,99,99,99,29.54,29.54,3,3,0,0.00
2014-4-9,54,54,54,38,38,38,54,54,54,29.90,29.90,0,0,0,0.00
2014-4-10,75,75,75,46,46,46,35,35,35,29.79,29.79,9,9,0,0.00
2014-4-12,84,79,69,61,59,55,67,51,41,30.03,29.78,10,5,0,0.02
2014-4-16,45,45,44,26,26,26,49,48,48,30.10,30.09,2,2,0,0.00
2014-4-17,74,55,40,43,35,26,74,49,29,30.25,30.11,9,2,0,0.00
2014-4-18,78,60,45,49,44,39,90,61,34,30.19,30.04,6,1,0,0.00
2014-4-19,75,61,48,51,43,39,78,54,31,30.13,30.01,9,4,0,0.00
2014-4-20,86,64,46,50,44,37,73,50,29,30.12,29.96,6,2,0,0.00
2014-4-21,86,67,48,56,51,46,91,60,32,29.97,29.72,7,2,0,0.00
2014-4-22,79,66,51,62,52,34,99,65,31,29.80,29.64,11,3,0,0.02
2014-4-23,68,52,40,41,36,33,78,56,37,29.97,29.81,8,2,0,0.00
2014-4-24,77,59,46,49,41,36,73,52,33,29.95,29.63,10,4,0,0.00
2014-4-25,69,61,49,63,53,41,99,78,46,29.82,29.51,11,3,0,0.97
2014-4-26,83,64,43,53,48,43,99,63,31,29.86,29.76,9,2,0,0.00
2014-4-27,87,68,50,62,53,46,90,63,40,29.85,29.66,7,2,0,0.05
2014-4-28,68,65,62,68,63,60,99,94,87,29.73,29.51,13,3,0,1.34
2014-4-29,82,66,55,64,59,52,99,80,40,29.76,29.39,9,4,0,1.67
2014-4-30,69,59,53,64,56,48,99,91,75,29.78,29.62,8,3,0,1.00
2014-5-1,67,56,47,49,44,40,92,67,45,29.82,29.76,9,3,0,0.00
2014-5-2,69,56,41,49,44,39,94,66,47,29.81,29.74,5,2,0,0.00
2014-5-3,77,59,41,52,46,41,99,65,38,29.84,29.72,10,3,0,0.00
2014-5-4,89,68,48,59,51,41,90,57,34,29.86,29.73,7,2,0,0.00
2014-5-5,89,70,52,62,51,39,67,52,36,29.85,29.61,8,4,0,0.00
2014-5-6,92,71,52,65,57,49,89,64,38,29.80,29.69,8,1,0,0.00
2014-5-7,88,74,56,65,59,55,95,63,38,29.90,29.76,9,2,0,0.00
2014-5-8,90,76,61,66,58,52,78,56,35,29.99,29.86,8,3,0,0.00
2014-5-9,77,71,63,68,62,55,97,74,59,29.90,29.76,8,3,0,0.21
2014-5-10,77,65,58,68,63,58,99,92,66,29.90,29.80,8,2,0,1.12
2014-5-11,87,71,56,73,64,56,99,81,57,29.99,29.85,7,1,0,0.00
2014-5-12,92,79,65,73,68,64,96,71,49,29.98,29.88,9,3,0,0.00
2014-5-13,92,77,66,74,68,65,98,76,50,29.96,29.87,8,2,0,0.06
2014-5-14,86,69,63,70,66,63,99,90,54,29.94,29.73,4,1,0,0.02
2014-5-15,66,56,49,64,53,46,99,89,71,29.94,29.62,9,3,0,0.44
2014-5-16,66,51,42,51,44,35,99,79,48,29.96,29.84,8,2,0,0.02
2014-5-17,69,53,37,46,41,37,99,68,39,30.10,29.94,5,1,0,0.00
2014-5-18,70,56,41,45,42,39,95,62,39,30.16,30.06,6,1,0,0.00
2014-5-19,79,62,43,50,45,40,90,57,34,30.17,29.97,8,2,0,0.00
2014-5-20,88,73,56,65,59,48,82,62,42,30.02,29.84,8,3,0,0.00
2014-5-21,86,73,63,70,63,56,99,72,60,29.92,29.79,9,3,0,1.23
2014-5-22,89,74,61,73,65,57,99,77,52,29.93,29.81,7,2,0,0.37
2014-5-23,83,70,59,59,54,51,81,59,39,29.99,29.89,6,2,0,0.00
2014-5-24,83,68,52,58,53,50,91,62,40,30.08,29.96,7,1,0,0.00
2014-5-25,86,69,54,60,55,50,93,64,33,30.04,29.94,5,1,0,0.00
2014-5-26,93,76,59,71,64,53,93,70,45,30.02,29.89,4,1,0,0.00
2014-5-27,95,80,68,73,68,64,95,69,44,29.93,29.81,5,2,0,0.00
2014-5-28,92,76,64,75,69,64,99,82,53,29.89,29.82,5,1,0,0.17
2014-5-29,92,75,64,73,68,63,97,79,52,29.94,29.83,3,1,0,0.00
2014-5-30,87,76,65,76,68,63,99,80,59,29.97,29.89,5,1,0,0.59
2014-5-31,88,76,61,63,59,55,83,58,39,30.04,29.91,9,3,0,0.00
2014-6-1,91,76,62,74,66,56,83,71,56,30.03,29.91,6,2,0,0.00
2014-6-2,85,74,68,69,66,62,84,74,60,30.02,29.88,7,3,0,0.00
2014-6-3,91,78,68,74,70,66,96,78,58,29.93,29.79,6,2,0,0.00
2014-6-4,88,77,67,76,72,67,99,84,65,29.81,29.57,10,2,0,2.66
2014-6-5,81,69,61,69,62,58,99,81,54,29.78,29.61,6,2,0,0.00
2014-6-6,88,72,57,63,58,53,94,64,40,29.86,29.77,6,2,0,0.00
2014-6-7,89,74,55,60,56,52,89,57,35,29.90,29.69,6,2,0,0.00
2014-6-8,76,69,60,67,64,59,96,82,67,29.83,29.62,8,3,0,0.00
2014-6-9,78,68,56,64,60,56,99,78,57,29.84,29.73,5,1,0,0.00
2014-6-10,89,73,64,72,66,61,98,81,54,29.76,29.64,7,2,0,0.02
2014-6-11,83,72,65,70,67,64,98,86,63,29.70,29.59,9,3,0,0.02
2014-6-12,87,73,62,70,65,62,99,79,54,29.75,29.65,5,1,0,0.00
2014-6-13,82,70,60,68,62,53,96,78,50,29.88,29.70,6,1,0,0.02
2014-6-14,82,69,54,56,52,47,80,57,34,29.99,29.87,4,2,0,0.00
2014-6-15,94,76,58,72,62,52,85,64,46,29.98,29.86,7,2,0,0.00
2014-6-16,97,82,66,75,70,64,96,69,47,30.04,29.93,7,1,0,0.00
2014-6-17,96,83,68,76,70,65,90,68,47,30.01,29.87,7,2,0,0.00
2014-6-18,98,85,70,76,72,68,95,68,45,30.00,29.87,5,1,0,0.00
2014-6-19,98,81,71,77,72,67,97,75,49,29.97,29.88,6,2,0,0.10
2014-6-20,96,80,68,78,72,68,99,81,50,29.93,29.78,8,1,0,0.12
2014-6-21,95,79,68,76,70,66,99,76,46,29.83,29.72,7,1,0,0.00
2014-6-22,99,82,67,72,67,64,93,65,37,29.81,29.69,6,1,0,0.00
2014-6-23,98,83,68,75,69,65,92,65,41,29.85,29.73,8,2,0,0.00
2014-6-24,90,78,71,75,70,67,94,78,55,29.86,29.72,9,3,0,0.16
2014-6-25,92,78,71,74,71,68,97,79,52,29.86,29.75,6,2,0,0.00
2014-6-26,97,81,67,74,69,65,96,71,42,29.90,29.80,4,1,0,0.01
2014-6-27,96,81,68,73,69,66,95,70,43,29.94,29.86,5,1,0,0.00
2014-6-28,85,77,71,76,71,68,94,83,70,30.02,29.91,5,1,0,0.01
2014-6-29,92,78,70,74,72,68,97,81,55,30.01,29.88,7,2,0,0.02
2014-6-30,92,80,70,78,73,69,98,82,62,29.91,29.73,7,3,0,0.00
2014-7-1,97,84,71,78,75,68,96,76,53,29.78,29.65,8,3,0,0.02
2014-7-2,94,80,68,73,69,66,95,71,42,29.83,29.71,5,2,0,0.00
2014-7-3,82,73,64,68,61,58,89,69,50,30.01,29.83,6,2,0,0.01
2014-7-4,85,72,56,58,53,48,86,55,34,30.14,30.01,8,2,0,0.00
2014-7-5,90,74,59,57,54,51,77,52,31,30.18,29.99,7,2,0,0.00
2014-7-6,93,79,64,66,62,54,82,59,38,30.00,29.81,9,2,0,0.00
2014-7-7,94,82,68,68,65,63,84,60,36,29.83,29.69,9,3,0,0.00
2014-7-8,95,80,70,74,68,64,88,68,43,29.76,29.66,9,3,0,0.00
2014-7-9,96,81,69,71,65,59,92,62,35,29.87,29.74,6,1,0,0.00
2014-7-10,96,80,64,68,63,58,92,60,37,29.98,29.87,7,1,0,0.00
2014-7-11,99,81,64,68,62,58,85,55,28,30.05,29.95,6,1,0,0.00
2014-7-12,99,82,65,69,66,62,91,60,38,30.04,29.91,5,1,0,0.00
2014-7-13,100,86,75,76,70,65,77,61,43,29.92,29.75,8,3,0,0.00
2014-7-14,90,78,70,76,72,64,96,82,60,29.83,29.67,8,2,0,0.25
2014-7-15,85,74,62,66,60,53,91,64,37,29.81,29.68,9,2,0,0.00
2014-7-16,82,69,55,58,55,52,91,64,39,29.86,29.79,5,1,0,0.00
2014-7-17,84,71,57,60,55,53,90,60,39,29.96,29.87,6,1,0,0.00
2014-7-18,72,65,62,64,59,54,96,81,64,30.01,29.95,5,2,0,0.04
2014-7-19,79,69,63,72,66,62,97,91,76,29.97,29.85,5,2,0,0.04
2014-7-20,91,75,69,76,70,67,97,88,62,29.90,29.83,6,1,0,0.38
2014-7-21,94,79,65,75,70,64,98,76,52,29.97,29.87,4,1,0,0.00
2014-7-22,102,84,70,78,72,68,95,71,43,29.97,29.85,5,1,0,0.00
2014-7-23,96,82,72,78,72,67,91,74,49,29.93,29.77,8,1,0,0.04
2014-7-24,82,72,64,69,63,56,92,74,51,29.90,29.76,8,3,0,0.00
2014-7-25,91,73,57,64,59,54,92,64,40,29.98,29.81,5,1,0,0.00
2014-7-26,93,78,64,72,67,60,89,71,50,29.88,29.72,11,3,0,0.00
2014-7-27,86,74,68,81,70,66,96,89,77,29.82,29.58,7,3,0,2.24
2014-7-28,78,70,63,68,62,58,93,78,60,29.85,29.66,6,2,0,0.00
2014-7-29,79,66,52,60,55,50,94,71,46,29.92,29.84,5,2,0,0.00
2014-7-30,87,72,57,62,58,54,91,66,40,29.92,29.87,5,1,0,0.00
2014-7-31,94,74,58,65,60,56,94,65,33,29.96,29.90,5,1,0,0.00
2014-8-1,89,76,61,67,62,59,94,65,40,29.95,29.85,5,1,0,0.00
2014-8-2,94,75,64,71,65,61,92,73,44,29.95,29.87,6,1,0,0.00
2014-8-3,89,74,57,67,62,56,96,69,43,30.01,29.91,6,1,0,0.00
2014-8-4,92,77,62,69,64,60,94,67,43,29.99,29.89,6,1,0,0.00
2014-8-5,94,78,63,70,64,61,95,66,39,29.94,29.85,5,1,0,0.00
2014-8-6,93,80,66,73,68,63,90,69,50,29.87,29.79,9,1,0,0.00
2014-8-7,88,76,66,67,64,61,89,67,46,29.92,29.83,7,3,0,0.00
2014-8-8,74,71,68,70,65,60,90,82,71,29.90,29.82,5,2,0,0.06
2014-8-9,80,73,70,75,70,67,94,90,81,29.87,29.80,6,1,0,0.66
2014-8-10,88,74,69,77,72,68,98,92,69,29.85,29.76,6,2,0,2.39
2014-8-11,85,75,70,77,72,69,97,91,76,29.79,29.65,8,2,0,0.04
2014-8-12,86,75,66,74,67,60,95,77,53,29.81,29.67,8,2,0,0.00
2014-8-13,84,70,58,63,60,56,94,72,46,29.91,29.80,7,1,0,0.00
2014-8-14,89,73,58,69,63,56,93,73,49,29.92,29.80,5,1,0,0.00
2014-8-15,88,73,61,65,60,53,95,67,40,29.91,29.83,4,1,0,0.00
2014-8-16,89,72,57,70,62,53,90,72,52,29.90,29.82,5,1,0,0.00
2014-8-17,77,72,68,73,70,67,94,91,86,29.86,29.73,5,2,0,0.64
2014-8-18,85,75,70,77,72,69,97,89,73,29.73,29.62,5,1,0,0.29
2014-8-19,94,79,68,77,72,67,97,80,54,29.74,29.65,4,1,0,0.00
2014-8-20,94,78,69,78,71,66,93,81,54,29.89,29.70,8,2,0,0.16
2014-8-21,94,79,67,79,72,66,95,81,61,29.92,29.84,4,2,0,0.01
2014-8-22,74,73,72,73,72,70,96,96,95,29.85,29.83,4,1,0,0.47
2014-8-23,94,80,69,81,74,68,98,85,63,29.85,29.74,7,1,0,0.33
2014-8-24,94,81,72,79,73,70,96,78,53,29.86,29.76,6,2,0,0.24
2014-8-25,94,81,71,78,72,69,93,75,53,29.92,29.85,6,2,0,0.00
2014-8-26,93,80,68,73,69,65,90,71,49,29.99,29.89,5,1,0,0.00
2014-8-27,97,80,68,77,70,65,94,74,48,29.95,29.84,5,1,0,0.13
2014-8-28,92,78,70,76,71,68,95,80,56,29.91,29.84,6,1,0,0.01
2014-8-29,99,81,68,79,71,63,88,73,49,29.92,29.82,5,2,0,0.00
2014-8-30,95,80,69,74,70,67,92,75,49,29.92,29.85,8,2,0,0.24
2014-8-31,78,73,70,74,70,68,94,92,87,29.93,29.84,7,2,0,0.37
2014-9-1,88,78,72,77,73,70,94,85,67,29.90,29.79,7,3,0,0.61
2014-9-2,91,76,70,77,71,68,95,86,61,29.88,29.74,9,2,0,0.80
2014-9-3,89,75,68,75,70,67,97,86,60,29.93,29.84,5,1,0,0.01
2014-9-4,96,78,69,79,72,67,95,84,57,29.97,29.90,7,1,0,0.44
2014-9-5,97,81,68,79,73,67,97,78,52,30.01,29.84,5,2,0,0.00
2014-9-6,95,79,68,77,71,62,94,78,53,29.94,29.81,7,2,0,0.12
2014-9-7,82,70,62,63,58,50,90,68,36,30.01,29.89,10,3,0,0.00
2014-9-8,87,71,58,71,62,53,92,74,56,29.95,29.83,5,1,0,0.00
2014-9-9,92,75,66,72,67,64,95,80,50,29.94,29.81,4,1,0,0.00
2014-9-10,86,76,68,73,70,65,93,81,65,29.84,29.67,9,4,0,0.00
2014-9-11,77,71,64,74,68,60,98,92,85,29.95,29.71,8,2,0,2.96
2014-9-12,68,62,58,60,58,55,93,85,75,30.02,29.92,7,3,0,0.00
2014-9-13,72,62,51,58,55,49,93,80,52,30.13,29.94,5,2,0,0.00
2014-9-14,79,60,47,55,51,46,96,74,41,30.16,30.00,5,1,0,0.00
2014-9-15,84,65,49,63,56,48,98,76,44,30.06,29.87,4,1,0,0.30
2014-9-16,74,62,53,62,59,52,97,89,62,29.97,29.89,5,2,0,0.13
2014-9-17,81,64,50,59,54,49,96,74,46,29.93,29.77,5,1,0,0.00
2014-9-18,78,65,55,58,54,52,91,70,49,29.92,29.82,5,2,0,0.00
2014-9-19,83,66,52,61,55,48,88,69,46,29.99,29.87,7,2,0,0.00
2014-9-20,88,73,61,70,65,59,93,76,54,29.98,29.78,8,2,0,0.00
2014-9-21,86,72,61,72,62,51,94,73,34,29.87,29.66,9,3,0,0.00
2014-9-22,78,60,50,52,49,46,92,68,40,30.09,29.87,5,1,0,0.00
2014-9-23,76,60,45,53,48,43,94,67,40,30.19,30.06,5,1,0,0.00
2014-9-24,82,65,47,59,51,45,94,65,35,30.21,30.09,7,1,0,0.00
2014-9-25,86,68,51,66,58,50,95,73,46,30.16,29.99,6,1,0,0.00
2014-9-26,86,70,58,62,58,53,96,68,36,30.09,29.97,6,1,0,0.00
2014-9-27,88,72,59,66,60,56,88,70,43,30.05,29.94,5,1,0,0.00
2014-9-28,90,71,60,68,62,58,95,75,42,30.01,29.87,4,0,0,0.00
2014-9-29,89,71,60,69,61,56,96,74,39,29.88,29.74,4,1,0,0.09
2014-9-30,91,70,53,63,58,51,96,69,36,29.81,29.68,5,1,0,0.00
2014-10-1,87,68,56,68,61,55,98,80,44,29.86,29.78,4,1,0,0.00
2014-10-2,90,73,58,66,62,57,95,70,43,29.90,29.71,7,2,0,0.00
2014-10-3,73,66,51,67,62,49,95,87,73,29.72,29.54,11,4,0,0.63
2014-10-4,59,49,40,48,38,32,95,70,40,29.77,29.68,11,3,0,0.00
2014-10-5,70,51,35,48,38,33,93,65,35,29.82,29.64,10,3,0,0.00
2014-10-6,63,56,50,59,53,47,98,93,78,29.72,29.61,9,2,0,1.24
2014-10-7,74,60,49,65,58,49,99,92,72,29.77,29.56,9,3,0,0.12
2014-10-8,77,60,47,57,51,47,99,75,37,29.96,29.76,7,1,0,0.00
2014-10-9,74,58,46,60,53,45,99,85,57,30.02,29.88,7,0,0,0.00
2014-10-10,62,58,54,60,57,53,98,96,91,29.90,29.80,7,3,0,0.37
2014-10-11,57,53,51,54,52,51,99,94,82,29.99,29.83,7,2,0,0.07
2014-10-12,77,62,52,67,58,51,97,89,71,29.98,29.80,8,2,0,0.04
2014-10-13,80,70,64,70,65,62,99,87,67,29.89,29.63,11,3,0,0.60
2014-10-14,69,64,56,66,61,54,97,91,76,29.64,29.45,15,4,0,1.50
2014-10-15,61,56,53,57,54,52,99,95,85,29.64,29.60,6,3,0,0.26
2014-10-16,61,55,52,58,54,52,99,97,86,29.75,29.58,8,2,0,0.16
2014-10-17,77,60,48,62,53,47,99,79,51,29.73,29.55,9,4,0,0.00
2014-10-18,60,54,48,51,48,44,94,81,66,29.98,29.67,7,2,0,0.02
2014-10-19,70,53,44,48,44,41,93,74,41,30.09,29.90,5,1,0,0.00
2014-10-20,64,51,41,54,47,40,99,87,61,29.92,29.72,11,2,0,0.08
2014-10-21,61,53,49,51,47,43,99,81,59,29.99,29.76,6,2,0,0.00
2014-10-22,55,49,41,45,43,39,95,81,68,30.14,29.99,6,2,0,0.00
2014-10-23,64,52,46,47,44,41,96,74,53,30.10,29.94,8,1,0,0.00
2014-10-24,72,52,40,51,45,40,99,80,41,29.98,29.86,5,0,0,0.00
2014-10-25,77,56,41,63,52,40,99,85,62,29.90,29.77,5,1,0,0.00
2014-10-26,79,60,44,58,46,40,98,67,26,29.89,29.77,3,1,0,0.00
2014-10-27,84,65,46,67,55,43,91,72,49,29.86,29.72,10,3,0,0.00
2014-10-28,76,65,51,67,59,48,97,82,67,29.90,29.75,14,4,0,0.51
2014-10-29,68,55,46,53,46,38,99,74,37,29.97,29.87,8,2,0,0.01
2014-10-30,60,45,35,43,38,34,99,79,51,30.01,29.88,4,1,0,0.00
2014-10-31,49,44,37,46,42,36,98,95,87,29.88,29.73,11,1,0,0.33
2014-11-1,39,35,28,35,33,27,99,91,78,30.19,29.83,10,4,0,0.17
2014-11-2,55,40,27,31,28,25,98,68,35,30.31,30.19,5,1,0,0.00
2014-11-3,57,34,29,34,29,27,96,86,41,30.24,30.22,4,0,0,0.00
2014-11-4,68,56,47,47,38,29,66,51,42,30.11,29.96,9,3,0,0.00
2014-11-5,54,54,54,53,53,53,96,95,95,30.01,30.01,3,2,0,0.00
2014-11-6,53,46,41,49,43,37,96,89,80,29.96,29.74,10,5,0,0.08
2014-11-7,54,42,32,37,34,31,96,76,50,30.06,29.88,6,2,0,0.00
2014-11-8,60,46,31,41,37,30,97,73,47,29.87,29.71,9,3,0,0.00
2014-11-9,61,47,36,39,37,34,94,71,44,29.90,29.78,5,1,0,0.00
2014-11-10,68,50,32,43,37,31,98,65,32,29.86,29.67,9,2,0,0.00
2014-11-11,70,56,50,56,44,40,73,65,60,29.75,29.66,7,4,0,0.00
2014-11-12,37,37,37,37,37,37,99,99,99,29.96,29.96,4,4,0,0.08
2014-11-14,38,38,38,18,18,18,43,43,43,30.18,30.18,2,2,0,0.00
2014-11-15,39,34,18,29,20,16,93,60,44,30.26,30.07,6,2,0,0.00
2014-11-16,44,39,32,38,34,28,99,82,61,30.07,29.69,6,2,0,0.26
2014-11-17,39,33,24,38,32,22,99,96,83,29.82,29.60,8,3,0,0.68
2014-11-18,28,22,19,15,12,10,68,64,55,30.14,30.07,9,4,0,0.00
2014-11-19,50,43,31,30,28,20,71,55,42,29.95,29.77,17,6,0,0.09
2014-11-20,41,33,27,27,24,20,82,68,46,30.05,29.93,7,3,0,0.00
2014-11-21,41,37,16,16,16,15,97,45,35,30.31,30.28,6,3,0,0.00
2014-11-23,55,53,48,53,50,40,97,89,67,29.84,29.35,7,5,0,0.46
2014-11-24,64,49,40,53,42,34,88,77,65,29.80,29.33,18,5,0,0.01
2014-11-25,55,42,30,38,32,29,98,71,44,29.99,29.80,9,2,0,0.00
2014-11-26,51,38,30,36,31,29,96,77,54,29.99,29.84,5,2,0,0.00
2014-11-27,36,32,28,30,27,21,95,81,66,30.26,29.85,7,3,0,0.00
2014-11-28,40,32,26,23,21,19,87,64,47,30.27,29.94,7,3,0,0.00
2014-11-29,58,50,37,47,39,25,76,65,56,29.91,29.77,12,6,0,0.00
2014-11-30,67,60,52,56,53,45,82,76,67,29.99,29.81,11,6,0,0.00
2014-12-1,61,50,37,54,46,36,97,88,77,30.25,29.97,9,4,0,0.25
2014-12-3,31,31,31,31,31,30,99,99,99,30.21,30.20,0,0,0,0.02
2014-12-4,34,32,30,33,32,30,99,99,98,30.22,30.19,5,2,0,0.01
2014-12-7,39,38,36,32,32,31,81,79,77,30.26,30.16,3,2,0,0.00
2014-12-8,49,45,36,38,36,31,82,71,63,30.16,29.96,5,4,0,0.00
2014-12-9,44,43,41,40,39,37,95,86,77,29.96,29.93,4,2,0,0.00
2014-12-10,37,36,34,30,29,28,80,77,74,30.06,30.04,6,4,0,0.00
2014-12-11,34,34,34,25,25,25,68,68,68,30.07,30.07,0,0,0,0.00
2014-12-13,44,42,39,37,37,36,86,80,77,30.17,30.10,3,2,0,0.00
2014-12-14,47,46,42,41,40,37,83,80,79,30.03,29.96,4,1,0,0.00
2014-12-15,49,45,42,38,38,37,82,74,64,29.88,29.70,7,5,0,0.00
2014-12-16,43,42,41,40,40,39,95,92,89,29.94,29.86,6,5,0,0.00
2014-12-17,36,31,28,30,27,25,89,85,79,30.10,30.06,6,2,0,0.00
2014-12-18,31,30,29,26,26,25,86,85,84,30.11,30.06,3,1,0,0.00
2014-12-19,32,30,30,26,25,25,85,81,77,30.10,30.08,2,1,0,0.00
2014-12-20,40,36,33,30,29,27,79,74,67,30.11,30.06,3,2,0,0.00
2014-12-21,26,25,24,25,24,23,99,98,95,30.14,30.11,2,0,0,0.00